FlightSource - Aviation Photo Database

World Wide Airport Lookup


Search by ICAO
Or
Search by City

FlightSource.ca - Aviation Photo Database - Labasa Airport Information
Airport Identification
Name: Labasa Airport
ICAO: NFNL
IATA: LBS
Airport Location
City:
Region: N
Country: Fiji
Continent: OC
Latitude: -16.4667
Longitude: 179.34
Airport Information
Type: Medium Airport
Elevation: 44 Feet ASL
Flight Status: NFNL
More Info: NFNL
Airport Weather    
Metar: NFNL 092000Z 24010KT 35KM SCT015 BKN030 OVC080 24/23 Q0999
TAF:


Advertisement